"TOA5","AWS1","CR1000","7964","CR1000.Std.14","CPU:AWS1_114.CR1","64363","TBL110"
"TIMESTAMP","RECORD","Wind_spd_WVc(1)","Wind_spd_WVc(2)","Air_Temp_Avg","Humidity_Avg","SW_upper_Wm2_Avg","Rain_Tot","Press_Avg","Issui_Tot","Depth_cm","SR50A_Raw","Quality","Ground_Temp_Avg(1)","Ground_Temp_Avg(2)","SW_lower_Wm2_Avg","Albedo_Avg","SWC_per(1)","SWC_per(2)","Period(1)","Period(2)"
"TS","RN","","","","","","","","","","","","","","","","","","",""
"","","WVc","WVc","Avg","Avg","Avg","Tot","Avg","Tot","Smp","Smp","Smp","Avg","Avg","Avg","Avg","Smp","Smp","Smp","Smp"
"2018-05-31 00:00:00",342925,0.378,187.9,8.27,100,0,0,863.0413,0,-21.89,3.348,192,14.05,14,0.9439182,0,50.99,57.68,33.54,35.14
"2018-05-31 00:10:00",342926,0.098,32.85,9.09,97.5,0,0,862.9492,0,16.67,2.958,337,14.06,13.95,1.865091,0,50.94,57.68,33.53,35.14
"2018-05-31 00:20:00",342927,0.11,46.36,10.32,82.8,0,0,862.9429,0,-20.1,3.325,182,14.03,13.96,2.410972,0,50.99,57.68,33.54,35.14
"2018-05-31 00:30:00",342928,0.127,42.13,9.71,87.4,0,0,862.9448,0,19.97,2.933,340,13.94,13.94,2.028098,0,50.94,57.74,33.53,35.16
"2018-05-31 00:40:00",342929,0.54,182.5,8.62,99.9,0,0,862.9426,0,-27.98,3.407,195,13.96,13.93,0.9098007,0,50.99,57.74,33.54,35.16
"2018-05-31 00:50:00",342930,0.046,175.9,8.7,100,0,0,862.8503,0,6.573,3.066,313,13.98,13.93,1.232022,0,50.94,57.8,33.53,35.17
"2018-05-31 01:00:00",342931,0.144,172.4,8.67,100,0,0,862.7598,0,-26.88,3.394,180,13.93,13.93,1.182741,0,50.99,57.74,33.54,35.16
"2018-05-31 01:10:00",342932,0.055,171.5,8.72,100,0,0,862.6941,0,-25.85,3.386,173,13.88,13.92,1.300257,0,50.94,57.8,33.53,35.17
"2018-05-31 01:20:00",342933,0.433,198.9,8.65,100,0,0,862.7053,0,-20.65,3.333,192,13.89,13.9,0.9098007,0,50.94,57.8,33.53,35.17
"2018-05-31 01:30:00",342934,0.087,207.4,8.89,100,0,0,862.5176,0,-20.88,3.335,175,13.84,13.89,0.9098007,0,50.94,57.8,33.53,35.17
"2018-05-31 01:40:00",342935,0.348,199.2,8.92,100,0,0,862.4664,0,19.95,2.932,332,13.76,13.89,1.167578,0,50.94,57.8,33.53,35.17
"2018-05-31 01:50:00",342936,0.172,196.7,8.97,100,0,0,862.4366,0,-20.37,3.33,188,13.78,13.89,1.364701,0,50.94,57.86,33.53,35.18
"2018-05-31 02:00:00",342937,0,0,8.98,100,0,0,862.3412,0,19.41,2.938,319,13.8,13.91,1.364701,0,50.94,57.86,33.53,35.18
"2018-05-31 02:10:00",342938,0.262,196.7,8.85,100,0,0,862.4186,0,-22.33,3.35,193,13.68,13.93,1.065225,0,50.94,57.86,33.53,35.18
"2018-05-31 02:20:00",342939,0.263,196,8.79,100,0,0,862.3976,0,15.39,2.978,358,13.68,13.93,1.008362,0,50.94,57.86,33.53,35.18
"2018-05-31 02:30:00",342940,0.026,195.9,9.03,99.4,0,0,862.1744,0,-25.92,3.382,200,13.71,13.89,1.429145,0,50.94,57.86,33.53,35.18
"2018-05-31 02:40:00",342941,0.253,322.1,9.85,88.5,0,0,862.2496,0,-1.76,3.142,222,13.66,13.85,2.600514,0,50.94,57.86,33.53,35.18
"2018-05-31 02:50:00",342942,0.029,109.4,9.5,97.4,0,0,862.403,0,-0.603,3.134,235,13.59,13.85,1.402609,0,50.94,57.91,33.53,35.2
"2018-05-31 03:00:00",342943,0.383,172.6,8.71,100,0,0,862.2197,0,-0.488,3.136,207,13.59,13.81,0.6292788,0,50.94,57.91,33.53,35.2
"2018-05-31 03:10:00",342944,0.176,176.7,8.7,100,0,0,862.0246,0,-27.33,3.399,269,13.63,13.77,0.9287549,0,50.94,57.91,33.53,35.2
"2018-05-31 03:20:00",342945,0.047,117.9,9.24,93.7,0,0,862.0729,0,-27.67,3.401,204,13.59,13.78,1.963653,0,50.94,57.97,33.53,35.21
"2018-05-31 03:30:00",342946,0.337,184.3,8.94,99.3,0,0,862.04,0,-20.88,3.335,180,13.55,13.8,1.482217,0,50.99,57.97,33.54,35.21
"2018-05-31 03:40:00",342947,0.303,255.4,9.08,96.2,0,0,862.0844,0,12.14,3.008,257,13.57,13.83,1.868882,0,50.94,57.97,33.53,35.21
"2018-05-31 03:50:00",342948,0.224,80.4,8.94,98.7,0,0,862.0294,0,-19.66,3.326,194,13.54,13.85,1.36091,0,50.94,57.97,33.53,35.21
"2018-05-31 04:00:00",342949,0.529,175.9,8.09,100,0,0,861.9186,0,-20.13,3.332,177,13.5,13.85,0.5686255,0,50.94,58.03,33.53,35.22
"2018-05-31 04:10:00",342950,0.464,182.3,8.34,100,0,0,862.008,0,12.63,3.008,250,13.42,13.81,1.205486,0,50.94,58.03,33.53,35.22
"2018-05-31 04:20:00",342951,0.259,183.1,8.53,100,0,0,862.2234,0,13.76,2.995,277,13.42,13.74,1.220649,0,50.94,58.03,33.53,35.22
"2018-05-31 04:30:00",342952,0.115,187,8.89,100,0.2358976,0,862.4293,0,-20.3,3.329,192,13.45,13.68,1.330584,1.663,50.94,58.03,33.53,35.22
"2018-05-31 04:40:00",342953,0.237,186.1,8.69,100,0.3184618,0,862.4453,0,13.53,2.998,299,13.43,13.68,0.9249641,1.023,50.94,58.03,33.53,35.22
"2018-05-31 04:50:00",342954,0.079,181,8.5,100,2.944788,0,862.3164,0,13.96,2.994,292,13.39,13.69,1.364701,0.557,50.94,58.03,33.53,35.22
"2018-05-31 05:00:00",342955,0.218,146.2,8.68,100,8.09522,0,862.0931,0,12.51,3.008,271,13.34,13.71,2.122868,0.273,50.94,58.03,33.53,35.22
"2018-05-31 05:10:00",342956,0.179,148.9,8.82,100,18.24275,0,862.1738,0,-21.19,3.335,190,13.36,13.72,3.991751,0.219,50.94,58.03,33.53,35.22
"2018-05-31 05:20:00",342957,0.217,174.4,9.25,97.5,47.75747,0,862.273,0,12.71,3.004,384,13.37,13.73,8.42703,0.183,50.94,58.09,33.53,35.24
"2018-05-31 05:30:00",342958,0.195,174.9,9.39,98.5,71.66962,0,861.9713,0,9.54,3.031,262,13.36,13.73,11.56584,0.162,50.99,58.09,33.54,35.24
"2018-05-31 05:40:00",342959,0.096,175.8,10.06,89.6,64.49834,0,861.9162,0,-20.93,3.325,192,13.28,13.72,10.70153,0.167,50.94,58.09,33.53,35.24
"2018-05-31 05:50:00",342960,0.125,175.7,10.57,85.6,72.96313,0,861.9138,0,21.3,2.913,272,13.24,13.73,12.37708,0.167,50.99,58.03,33.54,35.22
"2018-05-31 06:00:00",342961,0.04,181.7,10.45,90,74.47681,0,861.8555,0,-22.86,3.344,188,13.24,13.73,11.46728,0.154,50.94,58.03,33.53,35.22
"2018-05-31 06:10:00",342962,0.101,188.4,10.61,91.2,73.67082,0,861.8453,0,12.09,3.002,442,13.24,13.73,11.1261,0.15,50.94,58.03,33.53,35.22
"2018-05-31 06:20:00",342963,0.078,188.4,10.81,87.8,66.59389,0,861.8681,0,-29.06,3.404,195,13.24,13.72,9.947155,0.149,50.99,58.09,33.54,35.24
"2018-05-31 06:30:00",342964,0.141,188.4,10.82,92.4,68.8074,0,861.9812,0,-27.89,3.391,197,13.24,13.67,9.947155,0.144,50.94,58.09,33.53,35.24
"2018-05-31 06:40:00",342965,0.046,296.1,11.7,77.59,99.40332,0,862.1664,0,12.42,2.989,399,13.24,13.67,15.73576,0.158,50.94,58.09,33.53,35.24
"2018-05-31 06:50:00",342966,0.09,19.87,12.13,76.73,132.0813,0,862.1537,0,10.16,3.013,326,13.24,13.63,19.79549,0.15,50.94,58.15,33.53,35.25
"2018-05-31 07:00:00",342967,0.164,170.4,11.67,92.2,137.897,0,862.101,0,-26.42,3.373,195,13.21,13.6,19.26271,0.139,50.99,58.09,33.54,35.24
"2018-05-31 07:10:00",342968,0.288,150,11.75,98.4,244.4816,0,862.0442,0,-23.43,3.342,186,13.16,13.57,36.06564,0.147,50.99,58.15,33.54,35.25
"2018-05-31 07:20:00",342969,0.67,150.9,12.09,89.9,208.9142,0,861.5092,0,14.77,2.966,248,13.12,13.55,31.14421,0.149,50.99,58.09,33.54,35.24
"2018-05-31 07:30:00",342970,0.303,167.3,12.51,74.01,87.66674,0,861.5872,0,-26.54,3.369,205,13.11,13.52,14.15422,0.162,50.99,58.09,33.54,35.24
"2018-05-31 07:40:00",342971,0.316,314.3,12.4,75.3,67.03922,0,861.6019,0,-27,3.373,204,13.11,13.47,11.12616,0.167,50.99,58.15,33.54,35.25
"2018-05-31 07:50:00",342972,0.234,19.14,12.42,79.62,138.3738,0,861.7114,0,-21.8,3.324,188,13.11,13.5,21.38822,0.155,50.94,58.15,33.53,35.25
"2018-05-31 08:00:00",342973,0.143,359.5,12.6,81.2,337.1636,0,861.6271,0,12.57,2.985,350,13.1,13.47,48.05143,0.142,50.99,58.15,33.54,35.25
"2018-05-31 08:10:00",342974,0.266,44.74,12.86,81.8,310.359,0,861.7599,0,-21.58,3.317,224,13.11,13.45,45.07284,0.145,50.99,58.15,33.54,35.25
"2018-05-31 08:20:00",342975,0.555,139.7,12.72,84.1,310.7206,0,861.4039,0,-25.36,3.357,322,13.12,13.45,45.97854,0.148,50.99,58.15,33.54,35.25
"2018-05-31 08:30:00",342976,0.211,128,12.75,78.24,304.9391,0,861.3934,0,4.315,3.065,332,13.19,13.45,45.40253,0.149,50.99,58.15,33.54,35.25
"2018-05-31 08:40:00",342977,0.349,129.1,12.71,84,177.5939,0,861.3428,0,15.2,2.96,368,13.21,13.45,25.31037,0.142,50.94,58.21,33.53,35.26
"2018-05-31 08:50:00",342978,0.12,61.54,12.74,84.1,93.02596,0,861.3807,0,13.51,2.977,265,13.23,13.47,12.82003,0.137,50.94,58.26,33.53,35.28
"2018-05-31 09:00:00",342979,0.174,76.67,12.49,84.2,72.36445,0,861.5914,0,9.14,3.022,260,13.27,13.43,10.27724,0.143,50.94,58.15,33.53,35.25
"2018-05-31 09:10:00",342980,0.196,119.8,11.91,91.4,90.82893,0,861.623,0,-33.11,3.438,227,13.28,13.45,12.85034,0.142,50.99,58.15,33.54,35.25
"2018-05-31 09:20:00",342981,0.595,140.9,11.42,96.2,163.1069,0,861.4418,0,-29.17,3.402,197,13.26,13.44,23.19959,0.142,50.94,58.21,33.53,35.26
"2018-05-31 09:30:00",342982,0.556,144.6,11.53,92.6,210.4904,0,861.3492,0,13.07,2.986,257,13.22,13.44,29.95256,0.142,50.99,58.21,33.54,35.26
"2018-05-31 09:40:00",342983,0.41,160.4,11.65,91.5,79.14812,0,861.3408,0,13.89,2.978,251,13.27,13.42,11.72864,0.148,50.99,58.21,33.54,35.26
"2018-05-31 09:50:00",342984,0.495,146.8,11.54,98.1,71.46047,0,861.1891,0,-23.36,3.344,208,13.28,13.4,10.0764,0.142,50.94,58.21,33.53,35.26
"2018-05-31 10:00:00",342985,0.689,145.6,11.58,96.1,112.4534,0,861.1701,0,-22.64,3.336,231,13.28,13.38,16.42768,0.146,50.94,58.21,33.53,35.26
"2018-05-31 10:10:00",342986,0.55,150.9,11.76,95.7,174.6659,0.5,860.8478,0,-23.21,3.339,198,13.34,13.37,25.09815,0.144,50.94,58.21,33.53,35.26
"2018-05-31 10:20:00",342987,0.219,146.7,12.25,92,214.2517,0,860.8226,0,-24.95,3.355,229,13.32,13.35,30.47173,0.142,50.94,58.21,33.53,35.26
"2018-05-31 10:30:00",342988,0.086,333.2,12.65,94.1,238.9457,0,860.6288,0,2.058,3.088,256,13.39,13.3,32.71893,0.136,50.99,58.21,33.54,35.26
"2018-05-31 10:40:00",342989,0.499,347.1,12.42,99.5,76.34583,0,860.8016,0,-26.73,3.373,285,13.45,13.33,9.238909,0.119,50.94,58.21,33.53,35.26
"2018-05-31 10:50:00",342990,0.188,254.5,11.96,100,30.3654,0.5,861.3113,0,-29.28,3.4,189,13.44,13.37,3.251429,0.106,50.94,58.21,33.53,35.26
"2018-05-31 11:00:00",342991,0.265,280.1,11.45,100,46.04331,1,861.3976,0,15.17,2.968,284,13.43,13.33,4.778615,0.104,50.99,58.21,33.54,35.26
"2018-05-31 11:10:00",342992,0.069,298.6,11.05,100,69.86871,1,861.663,0,4.931,3.069,387,13.45,13.3,7.749619,0.111,50.99,58.26,33.54,35.28
"2018-05-31 11:20:00",342993,0.165,62.71,10.96,100,46.47171,0.5,861.7683,0,-0.403,3.122,212,13.45,13.31,4.98704,0.108,51.05,58.21,33.56,35.26
"2018-05-31 11:30:00",342994,0.258,31.82,10.88,100,80.37044,0.5,861.8715,0,8.7,3.033,297,13.44,13.32,9.125223,0.114,51.21,58.21,33.6,35.26
"2018-05-31 11:40:00",342995,0.105,128.2,10.89,100,86.80431,0,862.0211,0,-27.94,3.392,190,13.49,13.32,9.481441,0.109,51.49,58.26,33.66,35.28
"2018-05-31 11:50:00",342996,0.428,66.6,10.72,100,79.64333,1,862.337,0,-29.46,3.41,206,13.5,13.33,8.787953,0.11,51.66,58.32,33.7,35.29
"2018-05-31 12:00:00",342997,0.155,157.8,10.3,100,90.44376,0.5,862.0505,0,18.28,2.942,264,13.5,13.35,10.68651,0.118,51.94,58.38,33.77,35.31
"2018-05-31 12:10:00",342998,0.441,101.9,10.16,100,86.52965,0,861.7093,0,16.62,2.96,297,13.48,13.36,10.12572,0.117,52.1,58.44,33.81,35.32
"2018-05-31 12:20:00",342999,0.51,98.2,9.97,100,71.39595,0.5,861.4271,0,18.44,2.943,301,13.49,13.33,8.386531,0.118,52.21,58.61,33.84,35.36
"2018-05-31 12:30:00",343000,0.618,96.8,9.9,100,62.88195,0,861.0753,0,14.98,2.976,273,13.51,13.31,7.57593,0.121,52.27,58.73,33.85,35.39
"2018-05-31 12:40:00",343001,0.74,67.58,10.02,99.7,48.34687,0,860.9279,0,16.66,2.96,257,13.53,13.33,6.356155,0.131,52.38,58.85,33.88,35.41
"2018-05-31 12:50:00",343002,0.833,95.6,9.96,99.4,86.63255,0,860.5593,0,15.21,2.974,347,13.54,13.35,11.45854,0.133,52.44,58.97,33.89,35.44
"2018-05-31 13:00:00",343003,1.023,95.4,10.18,98.8,143.2119,0.5,860.3298,0,15.29,2.972,244,13.54,13.36,19.01359,0.133,52.44,59.03,33.89,35.45
"2018-05-31 13:10:00",343004,0.732,83.6,10.45,96.7,179.5215,0,860.3298,0,14.07,2.981,259,13.54,13.36,24.15462,0.135,52.38,59.14,33.88,35.48
"2018-05-31 13:20:00",343005,0.265,17.54,10.57,94.6,84.68246,0,860.3298,0,13.84,2.986,234,13.54,13.37,10.28823,0.119,52.38,59.2,33.88,35.5
"2018-05-31 13:30:00",343006,0.036,176.4,10.05,100,72.14125,0,860.3255,0,15.86,2.968,247,13.55,13.37,8.495245,0.116,52.38,59.32,33.88,35.52
"2018-05-31 13:40:00",343007,0.415,113.2,10.13,100,115.401,0,860.2076,0,-26.91,3.386,195,13.56,13.37,14.54543,0.126,52.32,59.38,33.87,35.54
"2018-05-31 13:50:00",343008,0.526,126.4,10.54,100,165.6119,0,860.0475,0,-29.37,3.407,223,13.57,13.37,22.26358,0.134,52.32,59.44,33.87,35.55
"2018-05-31 14:00:00",343009,0.436,110.8,10.97,100,280.0694,0,859.8011,0,13.4,2.985,415,13.61,13.37,38.38979,0.137,52.32,59.5,33.87,35.56
"2018-05-31 14:10:00",343010,0.385,103.2,11.48,96.2,245.9849,0,859.5041,0,-32.85,3.436,212,13.61,13.4,33.69982,0.137,52.27,59.61,33.85,35.59
"2018-05-31 14:20:00",343011,0.284,104.9,11.68,94,185.6848,0,859.5146,0,-27.13,3.38,194,13.58,13.37,25.33447,0.136,52.27,59.67,33.85,35.6
"2018-05-31 14:30:00",343012,0.047,327.3,11.9,99.2,448.4734,0,859.4852,0,-34.26,3.447,240,13.58,13.34,61.8362,0.138,52.27,59.67,33.85,35.6
"2018-05-31 14:40:00",343013,0.448,319.3,12.39,97.1,391.3675,0,859.5378,0,-21.89,3.324,188,13.53,13.29,52.24113,0.134,52.27,59.73,33.85,35.62
"2018-05-31 14:50:00",343014,0.133,304.3,12.33,100,278.6374,0,859.6389,0,-27.43,3.379,272,13.5,13.28,38.22942,0.137,52.21,59.79,33.84,35.63
"2018-05-31 15:00:00",343015,0.216,17.12,12.57,100,357.2841,0,859.58,0,-25.06,3.353,209,13.54,13.29,48.97627,0.137,52.27,59.79,33.85,35.63
"2018-05-31 15:10:00",343016,0.305,16.11,12.76,95.2,391.4412,0,859.4915,0,-25.16,3.354,222,13.54,13.3,49.86287,0.128,52.16,59.85,33.83,35.64
"2018-05-31 15:20:00",343017,0.312,303.9,12.71,92.4,274.7153,0,859.3566,0,3.694,3.072,284,13.61,13.3,38.62304,0.141,52.16,59.85,33.83,35.64
"2018-05-31 15:30:00",343018,0.11,80.4,12.72,94.2,237.0159,0,859.2682,0,-24.03,3.343,276,13.63,13.3,33.90126,0.143,52.1,59.85,33.81,35.64
"2018-05-31 15:40:00",343019,0.013,234,12.97,90.4,235.1766,0,859.2956,0,3.496,3.073,231,13.64,13.3,33.95811,0.144,52.1,59.91,33.81,35.66
"2018-05-31 15:50:00",343020,0.023,311.5,12.96,98.8,191.5072,0,859.3271,0,9.2,3.018,294,13.63,13.3,27.53104,0.144,52.1,59.91,33.81,35.66
"2018-05-31 16:00:00",343021,0.12,42,12.63,100,130.4108,0,859.3904,0,7.779,3.033,270,13.64,13.29,18.39445,0.141,52.1,59.91,33.81,35.66
"2018-05-31 16:10:00",343022,0.153,77.87,12.52,100,81.86395,0,859.3861,0,-24.9,3.354,262,13.77,13.28,11.4899,0.14,52.05,59.91,33.8,35.66
"2018-05-31 16:20:00",343023,0.087,45.16,12.16,100,153.91,0,859.5294,0,11.66,2.996,271,13.77,13.28,23.10864,0.15,52.05,59.91,33.8,35.66
"2018-05-31 16:30:00",343024,0.022,64.31,12.33,99.3,164.4,0,859.3209,0,9.47,3.019,355,13.73,13.28,23.91961,0.145,52.05,59.91,33.8,35.66
"2018-05-31 16:40:00",343025,0.025,187.9,12.28,99.7,169.8591,0,859.4283,0,-26.79,3.373,217,13.77,13.28,24.96931,0.147,52.05,59.91,33.8,35.66
"2018-05-31 16:50:00",343026,0.226,125.6,12.19,93,185.1165,0,859.184,0,15.68,2.958,258,13.78,13.28,27.08008,0.146,52.05,59.91,33.8,35.66
"2018-05-31 17:00:00",343027,0.006,124.3,12.31,96.3,142.2135,0,859.2724,0,2.856,3.083,250,13.76,13.28,20.59238,0.144,51.99,59.91,33.79,35.66
"2018-05-31 17:10:00",343028,0,0,12.28,88.9,87.02834,0,859.2345,0,-24.57,3.351,198,13.8,13.29,12.65708,0.145,51.99,59.85,33.79,35.64
"2018-05-31 17:20:00",343029,0.019,90,12.35,98.9,91.43813,0,859.3167,0,3.752,3.074,273,13.81,13.31,13.60067,0.149,51.99,59.91,33.79,35.66
"2018-05-31 17:30:00",343030,0.053,180.2,12.2,94.9,72.48235,0,859.2492,0,3.054,3.082,281,13.87,13.31,10.75852,0.148,51.94,59.91,33.77,35.66
"2018-05-31 17:40:00",343031,0.007,250.3,11.84,90.5,74.23133,0,859.0787,0,4.165,3.073,264,13.89,13.27,11.31558,0.152,51.94,59.91,33.77,35.66
"2018-05-31 17:50:00",343032,0.131,162.3,11.89,97.4,126.9601,0,859.0512,0,4.069,3.073,304,13.93,13.28,20.84628,0.164,51.94,59.91,33.77,35.66
"2018-05-31 18:00:00",343033,0.534,136.2,11.82,100,90.3848,0,858.8322,0,-37.5,3.482,281,13.95,13.31,14.00995,0.155,51.94,59.91,33.77,35.66
"2018-05-31 18:10:00",343034,0.518,134.2,11.54,100,77.94938,0,858.6911,0,-3.601,3.15,191,13.94,13.3,12.74803,0.163,51.94,59.91,33.77,35.66
"2018-05-31 18:20:00",343035,0.297,125.8,11.54,100,74.02303,0,858.7922,0,-26.16,3.371,197,13.93,13.3,12.33497,0.166,51.88,59.85,33.76,35.64
"2018-05-31 18:30:00",343036,0.309,51.01,11.56,100,39.6055,0,858.8112,0,-2.784,3.142,201,13.93,13.31,6.7416,0.171,51.88,59.85,33.76,35.64
"2018-05-31 18:40:00",343037,0.273,81.8,11.44,100,16.83342,0,858.8133,0,1.444,3.102,248,13.94,13.29,3.16427,0.189,51.88,59.85,33.76,35.64
"2018-05-31 18:50:00",343038,0.148,58.15,11.33,100,8.379372,0,858.8512,0,15.07,2.968,263,13.94,13.3,1.944036,0.253,51.88,59.85,33.76,35.64
"2018-05-31 19:00:00",343039,0.106,34.77,11.29,100,1.548533,0,859.0618,0,-26.01,3.371,196,13.94,13.29,0.6745389,0.502,51.82,59.85,33.75,35.64
"2018-05-31 19:10:00",343040,0.045,28.56,11.29,100,0.903966,0,859.0597,0,0.117,3.115,238,13.94,13.3,0.5532735,0.667,51.82,59.85,33.75,35.64
"2018-05-31 19:20:00",343041,0.102,146.7,11.21,100,0.08646631,0,858.9713,0,-25.85,3.37,196,13.95,13.32,0.3486381,0.081,51.82,59.85,33.75,35.64
"2018-05-31 19:30:00",343042,0.076,146.8,11.16,100,0,0,859.1671,0,13.67,2.984,292,13.95,13.33,0.3107426,0,51.82,59.85,33.75,35.64
"2018-05-31 19:40:00",343043,0.112,135.4,10.91,100,0,0,859.1545,0,14.45,2.977,250,13.96,13.35,0.2728472,0,51.82,59.85,33.75,35.64
"2018-05-31 19:50:00",343044,0.258,144.1,10.75,100,0,0,859.3019,0,-27.01,3.385,195,13.97,13.32,0.4509558,0,51.82,59.79,33.75,35.63
"2018-05-31 20:00:00",343045,0.657,140.4,10.57,100,0,0,859.0829,0,-24.11,3.357,192,13.97,13.31,0.4357997,0,51.82,59.85,33.75,35.64
"2018-05-31 20:10:00",343046,0.606,104.7,10.56,100,0,0,859.2429,0,-0.701,3.127,240,13.97,13.34,0.3903355,0,51.77,59.79,33.73,35.63
"2018-05-31 20:20:00",343047,0.277,112.1,10.64,100,0,0,859.323,0,-3.106,3.151,202,13.96,13.37,0.3676105,0,51.77,59.79,33.73,35.63
"2018-05-31 20:30:00",343048,0.319,42.47,10.53,100,0,0,859.4261,0,-26.68,3.382,220,13.93,13.39,0.4548119,0,51.77,59.79,33.73,35.63
"2018-05-31 20:40:00",343049,0.77,61.91,10.16,100,0,0.5,859.5694,0,-25.93,3.379,189,13.95,13.4,0.2728939,0,51.77,59.79,33.73,35.63
"2018-05-31 20:50:00",343050,0.346,320,9.73,100,0,0,859.8179,0,9.3,3.034,256,13.98,13.41,0.4472408,0,51.77,59.79,33.73,35.63
"2018-05-31 21:00:00",343051,1.095,319.2,9.58,100,0.0511065,0.5,859.9359,0,13.51,2.993,388,13.95,13.41,0.5875098,0.329,51.77,59.79,33.73,35.63
"2018-05-31 21:10:00",343052,0.819,306.7,9.56,100,0.01572511,0,859.9991,0,10.76,3.02,327,13.91,13.41,0.7808678,0.129,51.82,59.79,33.75,35.63
"2018-05-31 21:20:00",343053,0.564,278.6,9.58,100,0.3970867,0,859.9611,0,-26.08,3.382,237,13.92,13.43,0.9666427,1.798,51.82,59.79,33.75,35.63
"2018-05-31 21:30:00",343054,0.503,266.7,9.54,100,0.09042661,0,860.0854,0,13.47,2.994,353,13.93,13.44,0.8984222,0.803,51.88,59.79,33.76,35.63
"2018-05-31 21:40:00",343055,0.321,153.5,9.43,100,0,0,860.2181,0,11.51,3.013,366,13.94,13.45,0.909799,0,51.88,59.79,33.76,35.63
"2018-05-31 21:50:00",343056,0.27,39.92,9.46,100,0,0,860.3298,0,9.83,3.03,274,13.96,13.46,0.9325454,0,51.94,59.85,33.77,35.64
"2018-05-31 22:00:00",343057,0.302,28.86,9.43,100,0,0,860.3318,0,12.93,2.999,430,13.9,13.46,1.061434,0,51.94,59.85,33.77,35.64
"2018-05-31 22:10:00",343058,0.285,257.8,9.37,99.5,0,0,860.3298,0,12.37,3.005,323,13.92,13.46,1.156205,0,51.99,59.85,33.79,35.64
"2018-05-31 22:20:00",343059,0.195,17.46,9.42,93.1,0.294872,0,860.3318,0,318,0,0,13.87,13.46,1.410191,1.928,51.99,59.85,33.79,35.64
"2018-05-31 22:30:00",343060,0.343,300.2,9.48,89.8,0.5779492,0,860.3336,0,9.59,3.033,320,13.88,13.46,1.626269,1.477,51.99,59.91,33.79,35.66
"2018-05-31 22:40:00",343061,0.643,359.3,9.31,93.5,0,0,860.3376,0,15.54,2.975,406,13.82,13.46,1.474635,0,51.94,59.91,33.77,35.66
"2018-05-31 22:50:00",343062,0.371,9.17,9.29,98,0,0,860.3382,0,14.78,2.982,260,13.78,13.46,1.489799,0,51.99,59.91,33.79,35.66
"2018-05-31 23:00:00",343063,0.456,25.79,9.21,100,0,0,860.3547,0,-26.88,3.393,192,13.76,13.46,1.194113,0,51.99,59.91,33.79,35.66
"2018-05-31 23:10:00",343064,0.289,8.5,9.06,100,0,0,860.3485,0,-31.61,3.439,223,13.77,13.46,0.9590816,0,51.99,59.91,33.79,35.66
"2018-05-31 23:20:00",343065,0.383,308.6,9.04,100,0,0,860.3537,0,13.07,3,285,13.79,13.46,0.9098007,0,51.99,59.91,33.79,35.66
"2018-05-31 23:30:00",343066,0.906,298.4,9,100,0,0,860.3436,0,-27.57,3.4,202,13.77,13.46,0.9098007,0,51.99,59.91,33.79,35.66
"2018-05-31 23:40:00",343067,0.588,281.9,8.86,100,0,0.5,860.3471,0,-39.55,3.519,309,13.68,13.46,0.9098007,0,51.99,59.91,33.79,35.66
"2018-05-31 23:50:00",343068,0.269,250.5,8.81,100,0,0,860.3802,0,-21.31,3.34,198,13.68,13.47,0.8870557,0,51.99,59.97,33.79,35.67
